Location: Góry Miechowskie
(50.3599°N, 20.1803°E)
Time: 02:38:43
(UTC+00:00)

Cosmos 2228 - Pass Details

Date: 18 September 2024
Orbit: 574 x 600 km, 82.5° (Epoch: 11 October)

Event Time Altitude Azimuth Distance (km) Brightness Sun altitude
Exits shadow 01:16:53 52° 38° (NE) 744 3.7 -27.3°
Drops below altitude 10° 01:20:10 11° 15° (NNE) 1,899 6.2 -26.9°
Sets 01:22:32 0° 13° (NNE) 2,859 7.3 -26.6°
